This demonstration page uses our WeatherBlox Daily Observations layout. Learn more.

Left ArrowRight Arrow

30.21309, -93.2044

Hourly Observations for July 27, 2022

Temp ( °F °C ) Dew Point ( °F °C ) Humidity (%) Winds ( mph kmh ) Pressure ( in mb ) Visibility ( mi km ) Precip ( " mm )
12:15 am 00:15 Clear 77 25.1 75 23.9 93 93 SE 5 7 30.02 1017 10 16 0.00 0.00
12:35 am 00:35 Clear 78 25.4 75 24 92 92 E 5 7 30.02 1017 10 16 0.00 0.00
12:55 am 00:55 Clear 77 24.9 75 23.7 93 93 E 3 6 30.01 1016 10 16 0.00 0.00
1:15 am 01:15 Clear 77 25 75 23.9 94 94 ESE 5 7 30.02 1017 10 16 0.00 0.00
1:35 am 01:35 Partly Cloudy 77 24.9 75 23.8 94 94 ESE 3 6 30.01 1016 10 16 0.00 0.00
1:55 am 01:55 Partly Cloudy 77 24.9 75 23.9 94 94 ESE 3 6 30.02 1017 10 16 0.00 0.00
2:15 am 02:15 Partly Cloudy 76 24.7 75 23.7 94 94 E 3 6 30.01 1016 10 16 0.00 0.00
2:35 am 02:35 Clear 77 24.8 75 23.8 94 94 Calm 30.01 1016 10 16 0.00 0.00
2:55 am 02:55 Clear 77 24.8 75 23.9 95 95 Calm 30.01 1016 10 16 0.00 0.00
3:15 am 03:15 Clear 76 24.7 75 23.7 94 94 E 3 6 30.01 1016 10 16 0.00 0.00
3:35 am 03:35 Partly Cloudy 77 24.9 75 23.9 94 94 ENE 3 6 30.01 1016 10 16 0.00 0.00
3:55 am 03:55 Clear 77 24.9 75 23.9 94 94 ENE 6 9 30.02 1017 10 16 0.00 0.00
4:15 am 04:15 Clear 77 24.9 75 23.8 94 94 E 3 6 30.01 1016 10 16 0.00 0.00
4:35 am 04:35 Clear 76 24.6 74 23.6 94 94 ESE 5 7 30.01 1016 10 16 0.00 0.00
4:55 am 04:55 Clear 76 24.3 74 23.3 94 94 Calm 30.01 1016 10 16 0.00 0.00
5:15 am 05:15 Clear 76 24.3 74 23.3 94 94 ESE 3 6 30.01 1016 10 16 0.00 0.00
5:35 am 05:35 Clear 76 24.2 74 23.3 95 95 Calm 30.01 1016 10 16 0.00 0.00
6:00 am 06:00 Mostly Clear 75 24 75 24 100 100 Calm 30.01 1016 10 16 0.00 0.00
6:55 am 06:55 Partly Cloudy 75 24 75 24 100 100 Calm 30.03 1017 10 16 0.00 0.00
7:55 am 07:55 Partly Cloudy 79 26 77 25 94 94 ESE 6 9 30.04 1017 10 16 0.00 0.00
8:45 am 08:45 Partly Cloudy 73 22.9 79 26 100 100 SE 7 11 30.05 1018 10 16 0.00 0.00
9:53 am 09:53 Mostly Cloudy 88 31 77 25 70 70 S 6 9 30.05 1018 10 16 0.00 0.00
10:47 am 10:47 Mostly Cloudy 88 31 75 24 66 66 S 17 28 30.05 1018 10 16 0.00 0.00
11:47 am 11:47 Mostly Cloudy with Thunderstorms 88 31 73 23 62 62 S 15 24 30.05 1018 7 11 0.00 0.00
12:50 pm 12:50 Mostly Cloudy with Thunderstorms 90 32 75 24 63 63 Calm 30.05 1018 10 16 0.00 0.00
1:48 pm 13:48 Mostly Cloudy with Thunderstorms 79 26 75 24 89 89 E 15 24 30.04 1017 7 11 0.00 0.00
2:45 pm 14:45 Partly Cloudy 81 27 75 24 84 84 N 7 11 30.03 1017 10 16 0.00 0.00
3:45 pm 15:45 Mostly Cloudy 81 27 75 24 84 84 N 7 11 30.04 1017 10 16 0.00 0.00
4:50 pm 16:50 Mostly Sunny 81 27 75 24 84 84 VRB 7 11 30.00 1016 10 16 0.00 0.00
5:47 pm 17:47 Mostly Sunny 82 28 75 24 79 79 SSE 6 9 30.01 1016 10 16 0.00 0.00
6:45 pm 18:45 Mostly Sunny 81 27 75 24 84 84 SE 6 9 30.00 1016 10 16 0.00 0.00
7:45 pm 19:45 Mostly Sunny 81 27 75 24 84 84 SE 9 15 30.00 1016 10 16 0.00 0.00
8:45 pm 20:45 Mostly Clear 79 26 75 24 89 89 Calm 29.99 1016 10 16 0.00 0.00
9:48 pm 21:48 Mostly Clear 79 26 75 24 89 89 Calm 30.00 1016 10 16 0.00 0.00
10:15 pm 22:15 Clear 78 25.3 75 24 93 93 ESE 3 6 30.00 1016 10 16 0.00 0.00
10:35 pm 22:35 Clear 78 25.3 75 24.1 93 93 ESE 5 7 30.01 1016 10 16 0.00 0.00
10:55 pm 22:55 Clear 78 25.3 76 24.2 94 94 E 3 6 30.01 1016 10 16 0.00 0.00
11:15 pm 23:15 Partly Cloudy 78 25.3 75 24.1 93 93 Calm 30.01 1016 10 16 0.00 0.00
11:35 pm 23:35 Partly Cloudy 78 25.3 75 24.1 93 93 Calm 30.01 1016 10 16 0.00 0.00
11:55 pm 23:55 Clear 77 25 75 24 94 94 ESE 5 7 30.01 1016 10 16 0.00 0.00

Powered by AerisWeather